Showing default

SKYKRAFT-1, 55041

Orbit data source: Space-Track

SKYKRAFT-1, 55041 is a payload satellite owned by SkyKraft (AU) in SSO that was launched on Tue, 03 Jan 2023 UTC via an FALCON 9 launch vehicle from the Air Force Eastern Test Range (AFETR). Payload-class satellites include a variety of spacecraft equipped with specific instruments for various scientific and technological missions. These include communications satellites like Starlink; space stations such as the ISS; scientific satellites like the Hubble; Earth observation satellites from companies like Planet Labs, Umbra, and HawkEye 360; GPS; miniature CubeSats for education and research; and military/defense satellites.

Loading next visibility...
Identifier
55041, 2023-001AJ
Orbit
SSO
Country
Flag of AUAU / AUS
Related business
Manufacturer
SkyKraft
Mission
Operational Commercial Technology
Bus & Motor
SKYKRAFT CARRIER, AOCS
Mass
~100 kg wet, ~100 kg dry
Launch date (UTC)
2023-01-03 (3 years ago)
Launch vehicle
FALCON 9
Launch site
Air Force Eastern Test Range (AFETR)
Object type
Payload
Rocket body
Debris
Shape & HBR
Box, 0.3 m
Radar Cross Section
0.065 m², Medium (>0.1 m² and < 1m²)

Expand to show TLE details & history
Last TLE update: 7 hours ago

TLE from 7 hours ago
0 SKYKRAFT-1
1 55041U 23001AJ  25288.65764574  .00033613  00000-0  70178-3 0  9992
2 55041  97.3567 354.4317 0005989 232.1320 127.9388 15.45438969155031
Epoch: 2025-10-15T15:47Z
TLE epoch observation values (Epoch: 2025-10-15T15:47:00.591Z)
Latitude
-0.00003°
Longitude
93.25067°
Altitude
435.724 km
Speed
7.649 km/s
True Right ascension
23h 37m 43s
True Declination
0° 00' 00"
Sunlit
Object was in full shadow at epoch
Visualization orbit readout
Latitude
Unknown
Longitude
Unknown
Altitude
Unknown
Speed
Unknown
Apparent Right ascension
Unknown
Apparent Declination
Unknown
Sunlit
N/A
Visualization observer readout
Local Sidereal Time
16:56:58
Azimuth
Unknown
Elevation
Unknown
Doppler factor
Unknown
Orbital elements
Apogee altitude
431.094 km
Perigee altitude
422.943 km
Semi-major axis
6,805.155 km
Eccentricity
0.0006
Inclination
97.3567°
RAAN
354.4317°
Arg. of periapsis
232.132°
True anomaly
127.9929°
Mean anomaly
127.9388°
Eccentric anomaly
127.96585°
Mean motion
3.86622 °/min
Orbital period
93.11 mins
BSTAR
0.00070178
Loading maneuver chart data...
Computing Atmospheric mass density...

Documentation

Showing up to 5 results
|